Location: �perlecques
(50.8057°N, 2.1521°E)
Time: 18:41:32
(UTC+00:00)

Cosmos 1934 Rocket - Pass Details

Date: 09 April 2020
Orbit: 937 x 1000 km, 83.0° (Epoch: 01 June)

Event Time Altitude Azimuth Distance (km) Brightness Sun altitude
Rises 22:01:43 0° 349° (NNW) 3,701 8.1 -26.5°
Reaches altitude 10° 22:04:16 10° 348° (NNW) 2,740 7.3 -26.7°
Maximum altitude 22:10:31 76° 264° (W) 999 4.0 -27.2°
Enters shadow 22:11:28 63° 204° (SSW) 1,070 3.9 -27.2°
